www.pogodaiklimat.ru

Погода и климат >> Архив погоды >> Россия >> Краснодарский край >> Краснодар


АРХИВ ПОГОДЫ в Краснодаре

Время (UTC), дата Ветер
(напр.,м/с)
 
Видим.   Явления Облачность Т
(С)
Тd
(С)
f
(%)
Тe
(С)
Тes
(С)
Комфортность P
(гПа)
Po
(гПа)
Тmin
(С)
Tmax
(С)
R
(мм)
R24
(мм)
S
(см)
15 11.08 В 6-10
{13}
10 км ясно +26.4 +4.5 24 +25 +26 комфорт 1016.8 1012.8 +28.1
18 11.08 СВ 4 10 км ясно +21.2 +6.1 37 +22 +22 комфорт 1017.2 1013.1
21 11.08 СВ 3 10 км ясно +18.2 +7.3 49 +18 +18 холодно 1016.6 1012.5
00 12.08 СВ 3 10 км ясно +17.1 +7.7 54 +17 +17 прохладно 1015.3 1011.2
03 12.08 С 3 10 км 1/0
[Ac trans]
+15.4 +7.0 57 +15 +15 очень
холодно
1015.1 1011.0 +15.0
06 12.08 СВ 6 10 км 3/0
[Ac trans Ci fib]
+22.8 +10.7 46 +25 +27 комфорт 1014.5 1010.5
09 12.08 СВ 7 10 км 4/1 1000 м
[Sc diur, vesp Ac trans Ci fib]
+26.7 +10.7 37 +28 +31 жарко 1014.1 1010.1
12 12.08 СВ 5 10 км 9/8 1000 м
[Sc diur, vesp Ac trans]
+27.2 +9.8 34 +28 +28 жарко 1013.8 1009.8
15 12.08 СВ 3 10 км 4/4 1000 м
[Sc diur, vesp]
+26.9 +8.1 30 +27 +27 жарко 1013.8 1009.8 +28.2
18 12.08 С 2 10 км ясно +20.8 +8.8 46 +23 +23 комфорт 1014.7 1010.6
21 12.08 СЗ 1 10 км ясно +17.1 +8.9 58 +18 +18 холодно 1015.1 1011.0
00 13.08 СЗ 1 10 км ясно +15.8 +8.4 61 +17 +17 прохладно 1015.3 1011.2
03 13.08 штиль 0 10 км ясно +12.2 +8.9 80 +12 +12 очень
холодно
1015.3 1011.1 +11.5
06 13.08 ЮВ 1 10 км ясно +23.9 +7.4 35 +24 +34 комфорт 1015.6 1011.6
09 13.08 СВ 2 10 км ясно +27.5 +7.8 29 +27 +43 жарко 1015.3 1011.3
12 13.08 В 3 10 км 1/0
[Ac cast]
+29.5 +5.5 22 +28 +37 жарко 1014.4 1010.4
15 13.08 Ю 2 10 км ясно +28.2 +9.5 31 +28 +30 жарко 1013.5 1009.5 +29.6
18 13.08 штиль 0 10 км ясно +21.0 +10.7 52 +23 +23 комфорт 1014.1 1010.0
21 13.08 СЗ 1 10 км ясно +18.3 +11.1 63 +20 +20 прохладно 1014.4 1010.3
00 14.08 штиль 0 10 км ясно +16.0 +10.7 71 +16 +16 прохладно 1014.3 1010.2
03 14.08 В 1 10 км ясно +15.1 +11.9 81 +16 +16 холодно 1014.8 1010.7 +14.0
06 14.08 В 2 10 км ясно +24.4 +12.8 48 +26 +34 жарко 1015.1 1011.1
09 14.08 В 5 10 км ясно +31.3 +6.8 22 +30 +38 жарко 1014.4 1010.5
12 14.08 В 4
{10}
10 км ясно +32.5 +7.1 21 +31 +38 жарко 1013.2 1009.3
15 14.08 СВ 5
{10}
10 км ясно +32.2 +6.3 20 +30 +31 жарко 1012.3 1008.4 +33.3
18 14.08 С 3 10 км ясно +26.4 +7.0 29 +26 +26 жарко 1013.1 1009.1
21 14.08 СВ 3 10 км ясно +22.6 +8.4 40 +24 +24 комфорт 1013.0 1009.0
00 15.08 СВ 2 н/о н/о +20.1 +10.3 53 +22 +22 комфорт 1013.1 1009.0
03 15.08 В 1 10 км ясно +16.4 +10.6 69 +17 +17 холодно 1013.5 1009.4 +16.3
06 15.08 В 3 10 км ясно +25.7 +12.3 43 +27 +34 жарко 1013.6 1009.6
09 15.08 В 9-13
{13}
10 км ясно +33.5 +8.9 22 +32 +34 жарко 1012.6 1008.7
12 15.08 В 7-11
{13}
10 км ясно +35.3 +6.5 17 +33 +36 жарко 1011.6 1007.7
15 15.08 В 5
{12}
10 км ясно +33.8 +8.1 21 +32 +33 жарко 1010.9 1007.0 +35.8
18 15.08 СВ 3 10 км ясно +27.5 +8.9 31 +28 +28 жарко 1011.5 1007.5
21 15.08 СВ 3 10 км ясно +24.7 +9.4 38 +25 +25 комфорт 1011.2 1007.2
00 16.08 С 3 10 км ясно +21.6 +9.8 47 +23 +23 комфорт 1011.4 1007.4
03 16.08 СВ 5 10 км ясно +21.2 +10.4 50 +23 +23 комфорт 1011.6 1007.6 +20.9
06 16.08 СВ 7 10 км ясно +26.3 +11.0 38 +27 +29 жарко 1011.7 1007.7
09 16.08 СВ 7-11
{12}
10 км ясно +31.4 +8.5 24 +30 +35 жарко 1011.0 1007.1
12 16.08 СВ 7-10
{13}
10 км 4/0
[Ci]
+33.7 +9.8 23 +33 +35 жарко 1009.7 1005.8
15 16.08 СВ 7
{10}
10 км 8/0
[Ac trans Ci fib]
+33.0 +10.7 26 +33 +33 жарко 1009.0 1005.1 +34.5
18 16.08 СВ 3 10 км 6/0
[Ac trans Ci fib]
+28.4 +11.8 36 +29 +29 жарко 1009.4 1005.5
21 16.08 СВ 4 10 км 3/0
[Ci fib]
+26.5 +12.0 40 +28 +28 жарко 1009.7 1005.7
00 17.08 СВ 4 10 км 3/0
[Ci fib]
+24.3 +11.2 44 +26 +26 жарко 1010.0 1006.0
03 17.08 СВ 3 10 км 3/0 2000 м
[Ac trans]
+21.3 +11.4 53 +23 +23 комфорт 1010.6 1006.6 +21.1
06 17.08 В 5 10 км 4/0
[Ac cast]
+25.2 +13.4 48 +27 +30 жарко 1011.0 1007.0
09 17.08 СВ 6 10 км 1/0
[Ac trans]
+31.3 +12.7 32 +32 +38 жарко 1010.4 1006.5
12 17.08 СВ 7-11
{12}
10 км ясно +34.7 +8.2 20 +33 +36 жарко 1009.2 1005.3
15 17.08 СВ 7
{12}
10 км ясно +33.5 +1.5 13 +30 +31 жарко 1008.7 1004.8 +35.3 0.1
18 17.08 СВ 4 10 км ясно +29.0 +1.9 17 +27 +27 жарко 1009.6 1005.7
21 17.08 СВ 5 10 км ясно +27.3 +2.5 20 +26 +26 жарко 1009.4 1005.4
00 18.08 СВ 4 10 км ясно +25.0 +2.6 23 +24 +24 комфорт 1009.5 1005.5
03 18.08 С 4 10 км 4/3 600 м
[Sc diur, vesp Ci fib]
+21.7 +3.4 30 +22 +22 комфорт 1010.2 1006.2 +21.6
06 18.08 С 4 10 км 3/0
[Ci fib]
+29.3 +4.9 21 +28 +32 жарко 1010.3 1006.4
09 18.08 СВ 8-12
{13}
10 км 3/0
[Ci fib]
+34.4 +3.1 14 +31 +34 жарко 1009.9 1006.0
12 18.08 СВ 8-11
{14}
10 км 3/0
[Ac cast Ci fib]
+35.3 +2.8 13 +32 +34 жарко 1009.4 1005.5

 

Местоположение метеостанции Краснодар (Краснодарский край, Россия): широта 45.05 долгота 39.03 высота над уровнем моря 29 м.

В архиве по умолчанию представлена погода в Краснодаре за последнюю неделю. Архивные данные за месяц целиком и за предыдущие месяцы, начиная с января 2011 года, Вы можете получить, выбрав интересующий диапазон дат из раскрывающегося списка и нажав кнопку "Ввод!".


*Определитесь, кто Вы:
робот инопланетянин человек

Внимание! Время в таблицах - всемирное. Для получения местного времени необходимо прибавить поправку, которая в Краснодаре равна 3 ч.

Смотрите также архив погоды в соседних городах и на ближайших метеорологических станциях:

Погода в Горячем Ключе (Краснодарский край, Россия) (47 км)
Погода в Усть-Лабинске (Краснодарский край, Россия) (58 км)
Погода в Кореновске (Краснодарский край, Россия) (59 км)
Погода в Тимашевске (Краснодарский край, Россия) (65 км)
Погода в Славянске-на-Кубани (Краснодарский край, Россия) (76 км)
Погода в Белореченске (Краснодарский край, Россия) (76 км)
Погода в Крымске (Краснодарский край, Россия) (82 км)
Погода в Джубге (Краснодарский край, Россия) (84 км)
Погода в Горном (Краснодарский край, Россия) (88 км)
Погода в Геленджике (Краснодарский край, Россия) (92 км)

Пояснения к столбцам:

Ветер - указаны скорость ветра в м/с - средняя за 10 мин, порывы в срок и между сроками (в фигурных скобках) и направление, откуда дует ветер: С - северный, СВ - северо-восточный, В - восточный, ЮВ - юго-восточный, Ю - южный, ЮЗ - юго-западный, З - западный, СЗ - северо-западный.
Видимость - горизонтальная дальность видимости в метрах или километрах. При видимости от 1 до 10 км при отсутствии осадков обычно наблюдается дымка, при ухудшении видимости до 1 км и менее - туман. В сухую погоду видимость может ухудшаться дымом, пылью или мглою.
Явления - указаны атмосферные явления, наблюдавшиеся в срок или в последний час перед сроком; фигурными скобками обозначены явления, наблюдавшиеся между сроками (за 1-3 часа до срока); квадратными скобками обозначены град или гололедные отложения с указанием их диаметра в мм.
Облачность - указаны через наклонную черту общая и нижняя облачность в баллах и высота нижней границы облаков в метрах; квадратными скобками обозначены формы облаков: Ci - перистые, Cs - перисто-слоистые, Cc - перисто-кучевые, Ac - высококучевые, As - высокослоистые, Sc - слоисто-кучевые, Ns - слоисто-дождевые, Cu - кучевые, Cb - кучево-дождевые. Подробнее классификацию облаков см. в Атласе облаков (PDF).
T - Температура воздуха - температура, измеренная на высоте 2 м над землей.
Td - Температура точки росы - температура, при понижении до которой содержащийся в воздухе водяной пар достигнет насыщения.
f - Относительная влажность воздуха - влажноcть воздуха, измеренная на высоте 2 м над землей.
Te - Эффективная температура - температура, которую ощущает одетый по сезону человек в тени. Характеристика душности погоды. При расчете учитывается влияние влажности воздуха и скорости ветра на теплоощущения человека.
Tes - Эффективная температура на солнце - температура, которую ощущает человек, с поправкой на солнечный нагрев. Характеристика знойности погоды. Зависит от высоты солнца над горизонтом, облачности и скорости ветра. Ночью, в пасмурную погоду, а также при ветре 12 м/с и более поправка равна нулю.
P - Атмосферное давление - приведенное к уровню моря атмосферное давление.
Po - Атмосферное давление - измеренное на уровне метеостанции атмосферное давление.
Tmin - Минимальная температура - минимум температуры воздуха на высоте 2 м над землей.
Tmax - Максимальная температура - максимум температуры воздуха на высоте 2 м над землей.
R - Количество осадков - Количество выпавших осадков за период времени, мм. При наведении курсора мыши на число - период времени, за который выпало указанное количество осадков.
R24 - Количество осадков - Количество выпавших осадков за 24 часа, мм.
S - Снежный покров - Высота снежного покрова, см. При наведении курсора мыши на число - состояние снежного покрова и степень покрытия местности в баллах.